Home > Weather > Omaha > Past weeks

Flag for U.S.A. Weather for the Past 2 Weeks in Omaha, Nebraska, U.S.A.

Now
21 °F

Overcast.


Feels Like: 21 °F
Forecast: 15 / 30 °F
Wind: No wind

Location: Millard Airport

Current Time: Feb 10, 2016 at 1:55:39 AM

Latest Report: Feb 10, 2016 at 1:15 AM


Visibility: 10 mi

Pressure: 30.18 "Hg

Humidity: 77%

Dew point: 15 °F

Location of OmahaLocation

Historic Weather in Omaha — Graph

°F

Omaha Temperature Yesterday

Maximum temperature yesterday: 26 °F (at 12:15 AM)
Minimum temperature yesterday: 15 °F (at 8:15 AM)
Average temperature yesterday: 21 °F

High & Low Weather Summary for the Past Weeks

 TemperatureHumidityPressure
High51 °F (Jan 29, 2:15 PM)96% (Jan 30, 7:15 AM)30.37 "Hg (Jan 30, 7:15 AM)
Low14 °F (Feb 4, 12:15 AM)44% (Feb 7, 1:35 PM)29.37 "Hg (Feb 2, 2:15 PM)
Average31 °F77%29.99 "Hg
* Reported Jan 26 12:15 AM — Feb 10 12:55 AM, Omaha, Weather by CustomWeather, © 2016

Note: Actual official high and low records may vary slightly from our data, if they occured in-between our weather recording intervals... More about our weather records

Advertising

Omaha Weather History for the Previous 24 Hours

 ConditionsComfort  
Time TempWeatherWind HumidityBarometerVisibility
12:55 AM
Wed, Feb 10
21 °FOvercast.No wind77%30.18 "Hg10 mi
12:35 AM20 °FOvercast.No wind76%30.19 "Hg10 mi
12:15 AM20 °FOvercast.No wind78%30.20 "Hg10 mi
11:55 PM
Tue, Feb 9
20 °FOvercast.No wind78%30.21 "Hg10 mi
11:15 PM20 °FPassing clouds.No wind78%30.21 "Hg10 mi
10:35 PM21 °FClear.No wind76%30.22 "Hg10 mi
10:15 PM22 °FPassing clouds.No wind74%30.23 "Hg10 mi
9:55 PM23 °FPassing clouds.No wind68%30.23 "Hg10 mi
8:55 PM24 °FOvercast.No wind66%30.26 "Hg10 mi
8:15 PM23 °FOvercast.No wind68%30.26 "Hg10 mi
7:55 PM23 °FOvercast.No wind67%30.26 "Hg10 mi
7:15 PM23 °FOvercast.No wind65%30.26 "Hg10 mi
6:55 PM23 °FOvercast.No wind66%30.26 "Hg10 mi
6:15 PM23 °FClear.3 mph64%30.28 "Hg10 mi
5:55 PM23 °FClear.6 mph62%30.27 "Hg10 mi
5:35 PM24 °FSunny.6 mph59%30.26 "Hg10 mi
5:15 PM25 °FSunny.9 mph57%30.27 "Hg10 mi
4:55 PM25 °FSunny.9 mph56%30.26 "Hg10 mi
4:15 PM24 °FSunny.13 mph55%30.26 "Hg10 mi
3:15 PM24 °FSunny.13 mph49%30.26 "Hg10 mi
2:55 PM23 °FSunny.9 mph50%30.24 "Hg10 mi
2:35 PM23 °FSunny.10 mph51%30.24 "Hg10 mi
2:15 PM22 °FSunny.9 mph52%30.24 "Hg10 mi
1:55 PM22 °FSunny.15 mph52%30.25 "Hg10 mi
1:35 PM21 °FSunny.12 mph52%30.26 "Hg10 mi
1:15 PM21 °FSunny.10 mph49%30.28 "Hg10 mi
12:55 PM20 °FSunny.14 mph51%30.28 "Hg10 mi
12:35 PM20 °FSunny.16 mph52%30.28 "Hg10 mi
12:15 PM20 °FSunny.16 mph51%30.28 "Hg10 mi
11:55 AM19 °FSunny.13 mph55%30.29 "Hg10 mi
11:35 AM18 °FSunny.17 mph56%30.30 "Hg10 mi
11:15 AM18 °FSunny.17 mph57%30.30 "Hg10 mi
10:55 AM17 °FSunny.15 mph55%30.28 "Hg10 mi
10:35 AM17 °FSunny.17 mph57%30.28 "Hg10 mi
9:55 AM17 °FSunny.16 mph59%30.26 "Hg10 mi
9:15 AM16 °FSunny.9 mph60%30.24 "Hg10 mi
8:15 AM15 °FSunny.13 mph65%30.22 "Hg10 mi
7:15 AM15 °FClear.14 mph65%30.20 "Hg10 mi
6:55 AM16 °FClear.16 mph66%30.20 "Hg10 mi
6:15 AM17 °FClear.12 mph66%30.18 "Hg10 mi
5:55 AM17 °FClear.9 mph68%30.18 "Hg10 mi
5:15 AM18 °FClear.6 mph64%30.16 "Hg10 mi
4:15 AM20 °FClear.15 mph62%30.14 "Hg10 mi
3:55 AM21 °FClear.13 mph62%30.13 "Hg10 mi
3:15 AM22 °FClear.15 mph66%30.11 "Hg10 mi
2:55 AM22 °FClear.12 mph64%30.11 "Hg10 mi
2:15 AM23 °FClear.14 mph64%30.10 "Hg10 mi
1:55 AM24 °FClear.12 mph62%30.10 "Hg10 mi
1:15 AM24 °FClear.12 mph60%30.10 "Hg10 mi
Weather by CustomWeather, © 2016

See weather overviewHow to use our weather pages